This is the latest recevied weather packets stored in our database for station/object G4WLC-1. If no packets are shown the sender has not sent any weather packets the latest 10 day(s).
| Time | Temp. | Humidity | Pressure | Rain* | Wind** | Luminosity | Snow |
|---|---|---|---|---|---|---|---|
| 1788115035 | 15.56° C | 92% | 1004.7 hPa | 1.78 mm | - | - | - |
| 1788114735 | 15.56° C | 91% | 1004.8 hPa | 2.03 mm | - | - | - |
| 1788114435 | 15.56° C | 91% | 1004.8 hPa | 1.78 mm | - | - | - |
| 1788114135 | 16.11° C | 91% | 1004.9 hPa | 1.52 mm | - | - | - |
| 1788113835 | 16.11° C | 91% | 1004.9 hPa | 1.02 mm | - | - | - |
| 1788113535 | 16.11° C | 90% | 1004.9 hPa | 1.02 mm | - | - | - |
| 1788113235 | 16.11° C | 90% | 1005.1 hPa | 1.02 mm | - | - | - |
| 1788112935 | 16.11° C | 90% | 1005.1 hPa | 1.02 mm | - | - | - |
| 1788112635 | 16.11° C | 89% | 1005.1 hPa | 1.02 mm | - | - | - |
| 1788112335 | 16.67° C | 89% | 1005.4 hPa | 0.76 mm | - | - | - |
| 1788112035 | 16.67° C | 88% | 1005.3 hPa | 0.76 mm | - | - | - |
| 1788111735 | 16.67° C | 87% | 1005.3 hPa | 0.76 mm | - | - | - |
| 1788111435 | 17.22° C | 87% | 1005.2 hPa | 0.76 mm | - | - | - |
| 1788111135 | 17.22° C | 86% | 1005.2 hPa | 0.25 mm | - | - | - |
| 1788110835 | 17.78° C | 85% | 1005.2 hPa | 0 mm | - | - | - |
| 1788110535 | 17.78° C | 84% | 1005.3 hPa | 0 mm | - | - | - |
| 1788110235 | 17.78° C | 83% | 1005.4 hPa | 0 mm | - | - | - |
| 1788109935 | 17.78° C | 84% | 1005.6 hPa | 0 mm | - | - | - |
| 1788109635 | 17.78° C | 84% | 1005.5 hPa | 0 mm | - | - | - |
| 1788109335 | 17.78° C | 84% | 1005.6 hPa | 0 mm | - | - | - |
| 1788109035 | 18.33° C | 83% | 1005.5 hPa | 0 mm | - | - | - |
| 1788108735 | 18.33° C | 82% | 1005.5 hPa | 0 mm | - | - | - |
| 1788108435 | 18.33° C | 81% | 1005.6 hPa | 0 mm | - | - | - |
| 1788108135 | 18.33° C | 82% | 1005.7 hPa | 0 mm | - | - | - |
| 1788107835 | 18.33° C | 82% | 1005.8 hPa | 0 mm | - | - | - |
* Rain latest hour (hover to see other rain measurements)
** Current wind speed in m/s (hover to see current wind gust speed)